Tracking 18980 objects as of 20-Feb-2018
HD Live streaming from Space Station
objects crossing your sky now

FENGYUN 1C DEB

Track FENGYUN 1C DEB now!
10-day predictions


NORAD ID: 32209
Int'l Code: 1999-025CVF
Perigee: 853.0 km
Apogee: 1,377.9 km
Inclination: 99.4 °
Period: 107.4 minutes
Semi major axis: 7486 km
RCS: 0.0093 m2 (small)
Launch date: May 10, 1999
Source: People's Republic of China (PRC)
Launch site: Taiyaun Space Center, China (TSC)

Note: This is SATELLITE DEBRIS
aabbcc
Your satellite tracking list
Your tracking list is empty




NASA's NSSDC Master Catalog

Two Line Element Set (TLE):
1 32209U 99025CVF 18050.25428049 +.00000714 +00000-0 +96657-3 0  9997
2 32209 099.4312 153.1518 0350580 259.7570 096.3860 13.40257866517834
Source of the keplerian elements: AFSPC